owner,sensor,date,latitude,longitude,vertical_datum,wind_speed,wind_to_direction,wind_speed_of_gust,qcFlag 
COMPS,ioos:station:USF.COMPS:EGK:1,2013-03-01T00:00:00Z,27.6010,-82.7510,10.0,5.7,320.0,,'1111122,1111122,1111122' 
COMPS,ioos:station:USF.COMPS:EGK:1,2013-03-01T09:00:00Z,27.6010,-82.7510,10.0,7.2,330.0,,'1111122,1111122,1111122' 
COMPS,ioos:station:USF.COMPS:EGK:1,2013-03-01T10:00:00Z,27.6010,-82.7510,10.0,7.7,330.0,,'1111122,1111122,1111122' 
COMPS,ioos:station:USF.COMPS:EGK:1,2013-03-02T14:00:00Z,27.6010,-82.7510,10.0,4.6,50.0,,'1111122,1111122,1111122' 
COMPS,ioos:station:USF.COMPS:EGK:1,2013-03-02T15:00:00Z,27.6010,-82.7510,10.0,2.6,50.0,,'1111122,1111122,1111122' 
COMPS,ioos:station:USF.COMPS:EGK:1,2013-03-02T16:00:00Z,27.6010,-82.7510,10.0,6.2,350.0,,'1111122,1111122,1111122' 
COMPS,ioos:station:USF.COMPS:EGK:1,2013-03-02T17:00:00Z,27.6010,-82.7510,10.0,9.3,330.0,,'1111122,1111122,1111122' 
COMPS,ioos:station:USF.COMPS:EGK:1,2013-03-02T18:00:00Z,27.6010,-82.7510,10.0,9.3,330.0,,'1111122,1111122,1111122' 
COMPS,ioos:station:USF.COMPS:EGK:1,2013-03-02T19:00:00Z,27.6010,-82.7510,10.0,8.7,340.0,,'1111122,1111122,1111122' 
COMPS,ioos:station:USF.COMPS:EGK:1,2013-03-02T20:00:00Z,27.6010,-82.7510,10.0,8.7,330.0,,'1111122,1111122,1111122' 
COMPS,ioos:station:USF.COMPS:EGK:1,2013-03-02T22:00:00Z,27.6010,-82.7510,10.0,8.2,330.0,,'1111122,1111122,1111122' 
COMPS,ioos:station:USF.COMPS:EGK:1,2013-03-02T23:00:00Z,27.6010,-82.7510,10.0,8.2,330.0,,'1111122,1111122,1111122' 
COMPS,ioos:station:USF.COMPS:EGK:1,2013-03-03T00:00:00Z,27.6010,-82.7510,10.0,9.8,330.0,,'1111122,1111122,1111122' 
COMPS,ioos:station:USF.COMPS:EGK:1,2013-03-03T01:00:00Z,27.6010,-82.7510,10.0,7.7,320.0,,'1111122,1111122,1111122' 
COMPS,ioos:station:USF.COMPS:EGK:1,2013-03-03T03:00:00Z,27.6010,-82.7510,10.0,8.7,320.0,,'1111122,1111122,1111122' 
COMPS,ioos:station:USF.COMPS:EGK:1,2013-03-03T04:00:00Z,27.6010,-82.7510,10.0,10.8,330.0,,'1111122,1111122,1111122' 
COMPS,ioos:station:USF.COMPS:EGK:1,2013-03-03T05:00:00Z,27.6010,-82.7510,10.0,9.8,320.0,,'1111122,1111122,1111122' 
COMPS,ioos:station:USF.COMPS:EGK:1,2013-03-03T06:00:00Z,27.6010,-82.7510,10.0,10.3,330.0,,'1111122,1111122,1111122' 
COMPS,ioos:station:USF.COMPS:EGK:1,2013-03-03T07:00:00Z,27.6010,-82.7510,10.0,10.3,10.0,,'1111122,1111122,1111122' 
COMPS,ioos:station:USF.COMPS:EGK:1,2013-03-03T08:00:00Z,27.6010,-82.7510,10.0,8.2,30.0,,'1111122,1111122,1111122' 
COMPS,ioos:station:USF.COMPS:EGK:1,2013-03-03T09:00:00Z,27.6010,-82.7510,10.0,7.2,40.0,,'1111122,1111122,1111122' 
COMPS,ioos:station:USF.COMPS:EGK:1,2013-03-03T10:00:00Z,27.6010,-82.7510,10.0,6.2,40.0,,'1111122,1111122,1111122' 
COMPS,ioos:station:USF.COMPS:EGK:1,2013-03-03T11:00:00Z,27.6010,-82.7510,10.0,6.2,50.0,,'1111122,1111122,1111122' 
COMPS,ioos:station:USF.COMPS:EGK:1,2013-03-03T12:00:00Z,27.6010,-82.7510,10.0,6.7,40.0,,'1111122,1111122,1111122' 
COMPS,ioos:station:USF.COMPS:EGK:1,2013-03-03T13:00:00Z,27.6010,-82.7510,10.0,5.1,40.0,,'1111122,1111122,1111122' 
COMPS,ioos:station:USF.COMPS:EGK:1,2013-03-03T14:00:00Z,27.6010,-82.7510,10.0,5.1,40.0,,'1111122,1111122,1111122' 
COMPS,ioos:station:USF.COMPS:EGK:1,2013-03-03T15:00:00Z,27.6010,-82.7510,10.0,5.1,50.0,,'1111122,1111122,1111122' 
COMPS,ioos:station:USF.COMPS:EGK:1,2013-03-03T16:00:00Z,27.6010,-82.7510,10.0,3.1,40.0,,'1111122,1111122,1111122' 
COMPS,ioos:station:USF.COMPS:EGK:1,2013-03-03T17:00:00Z,27.6010,-82.7510,10.0,2.6,360.0,,'1111122,1111122,1111122' 
COMPS,ioos:station:USF.COMPS:EGK:1,2013-03-03T18:00:00Z,27.6010,-82.7510,10.0,2.1,340.0,,'1111122,1111122,1111122' 
COMPS,ioos:station:USF.COMPS:EGK:1,2013-03-03T19:00:00Z,27.6010,-82.7510,10.0,8.2,330.0,,'1111122,1111122,1111122' 
COMPS,ioos:station:USF.COMPS:EGK:1,2013-03-03T20:00:00Z,27.6010,-82.7510,10.0,8.2,320.0,,'1111122,1111122,1111122' 
COMPS,ioos:station:USF.COMPS:EGK:1,2013-03-03T21:00:00Z,27.6010,-82.7510,10.0,8.2,320.0,,'1111122,1111122,1111122' 
COMPS,ioos:station:USF.COMPS:EGK:1,2013-03-03T22:00:00Z,27.6010,-82.7510,10.0,7.7,310.0,,'1111122,1111122,1111122' 
COMPS,ioos:station:USF.COMPS:EGK:1,2013-03-03T23:00:00Z,27.6010,-82.7510,10.0,8.7,320.0,,'1111122,1111122,1111122' 
COMPS,ioos:station:USF.COMPS:EGK:1,2013-03-04T00:00:00Z,27.6010,-82.7510,10.0,8.7,320.0,,'1111122,1111122,1111122' 
COMPS,ioos:station:USF.COMPS:EGK:1,2013-03-04T01:00:00Z,27.6010,-82.7510,10.0,9.8,320.0,,'1111122,1111122,1111122' 
COMPS,ioos:station:USF.COMPS:EGK:1,2013-03-04T02:00:00Z,27.6010,-82.7510,10.0,7.2,320.0,,'1111122,1111122,1111122' 
COMPS,ioos:station:USF.COMPS:EGK:1,2013-03-04T03:00:00Z,27.6010,-82.7510,10.0,8.7,320.0,,'1111122,1111122,1111122' 
COMPS,ioos:station:USF.COMPS:EGK:1,2013-03-04T04:00:00Z,27.6010,-82.7510,10.0,8.7,330.0,,'1111122,1111122,1111122' 
COMPS,ioos:station:USF.COMPS:EGK:1,2013-03-04T05:00:00Z,27.6010,-82.7510,10.0,9.3,330.0,,'1111122,1111122,1111122' 
COMPS,ioos:station:USF.COMPS:EGK:1,2013-03-04T06:00:00Z,27.6010,-82.7510,10.0,7.2,320.0,,'1111122,1111122,1111122' 
COMPS,ioos:station:USF.COMPS:EGK:1,2013-03-04T07:00:00Z,27.6010,-82.7510,10.0,7.2,340.0,,'1111122,1111122,1111122' 
COMPS,ioos:station:USF.COMPS:EGK:1,2013-03-04T08:00:00Z,27.6010,-82.7510,10.0,6.2,330.0,,'1111122,1111122,1111122' 
COMPS,ioos:station:USF.COMPS:EGK:1,2013-03-04T09:00:00Z,27.6010,-82.7510,10.0,6.7,340.0,,'1111122,1111122,1111122' 
COMPS,ioos:station:USF.COMPS:EGK:1,2013-03-04T10:00:00Z,27.6010,-82.7510,10.0,6.7,40.0,,'1111122,1111122,1111122' 
COMPS,ioos:station:USF.COMPS:EGK:1,2013-03-04T11:00:00Z,27.6010,-82.7510,10.0,5.7,50.0,,'1111122,1111122,1111122' 
COMPS,ioos:station:USF.COMPS:EGK:1,2013-03-04T12:00:00Z,27.6010,-82.7510,10.0,4.6,60.0,,'1111122,1111122,1111122' 
COMPS,ioos:station:USF.COMPS:EGK:1,2013-03-04T13:00:00Z,27.6010,-82.7510,10.0,5.7,50.0,,'1111122,1111122,1111122' 
COMPS,ioos:station:USF.COMPS:EGK:1,2013-03-04T15:00:00Z,27.6010,-82.7510,10.0,4.6,60.0,,'1111122,1111122,1111122' 
COMPS,ioos:station:USF.COMPS:EGK:1,2013-03-04T16:00:00Z,27.6010,-82.7510,10.0,3.1,60.0,,'1111122,1111122,1111122' 
COMPS,ioos:station:USF.COMPS:EGK:1,2013-03-04T17:00:00Z,27.6010,-82.7510,10.0,3.1,30.0,,'1111122,1111122,1111122' 
COMPS,ioos:station:USF.COMPS:EGK:1,2013-03-04T18:00:00Z,27.6010,-82.7510,10.0,0.5,350.0,,'1111122,1111122,1111122' 
COMPS,ioos:station:USF.COMPS:EGK:1,2013-03-04T19:00:00Z,27.6010,-82.7510,10.0,2.6,350.0,,'1111122,1111122,1111122' 
COMPS,ioos:station:USF.COMPS:EGK:1,2013-03-04T20:00:00Z,27.6010,-82.7510,10.0,2.1,320.0,,'1111122,1111122,1111122' 
COMPS,ioos:station:USF.COMPS:EGK:1,2013-03-04T21:00:00Z,27.6010,-82.7510,10.0,2.1,290.0,,'1111122,1111122,1111122' 
COMPS,ioos:station:USF.COMPS:EGK:1,2013-03-04T22:00:00Z,27.6010,-82.7510,10.0,2.6,310.0,,'1111122,1111122,1111122' 
COMPS,ioos:station:USF.COMPS:EGK:1,2013-03-04T23:00:00Z,27.6010,-82.7510,10.0,4.1,310.0,,'1111122,1111122,1111122' 
COMPS,ioos:station:USF.COMPS:EGK:1,2013-03-05T00:00:00Z,27.6010,-82.7510,10.0,4.6,330.0,,'1111122,1111122,1111122' 
COMPS,ioos:station:USF.COMPS:EGK:1,2013-03-05T01:00:00Z,27.6010,-82.7510,10.0,3.6,360.0,,'1111122,1111122,1111122' 
COMPS,ioos:station:USF.COMPS:EGK:1,2013-03-05T02:00:00Z,27.6010,-82.7510,10.0,3.6,20.0,,'1111122,1111122,1111122' 
COMPS,ioos:station:USF.COMPS:EGK:1,2013-03-05T03:00:00Z,27.6010,-82.7510,10.0,2.1,40.0,,'1111122,1111122,1111122' 
COMPS,ioos:station:USF.COMPS:EGK:1,2013-03-05T04:00:00Z,27.6010,-82.7510,10.0,2.1,70.0,,'1111122,1111122,1111122' 
COMPS,ioos:station:USF.COMPS:EGK:1,2013-03-05T05:00:00Z,27.6010,-82.7510,10.0,2.6,70.0,,'1111122,1111122,1111122' 
COMPS,ioos:station:USF.COMPS:EGK:1,2013-03-05T06:00:00Z,27.6010,-82.7510,10.0,4.6,110.0,,'1111122,1111122,1111122' 
COMPS,ioos:station:USF.COMPS:EGK:1,2013-03-05T07:00:00Z,27.6010,-82.7510,10.0,3.6,120.0,,'1111122,1111122,1111122' 
COMPS,ioos:station:USF.COMPS:EGK:1,2013-03-05T09:00:00Z,27.6010,-82.7510,10.0,3.6,140.0,,'1111122,1111122,1111122' 
COMPS,ioos:station:USF.COMPS:EGK:1,2013-03-05T10:00:00Z,27.6010,-82.7510,10.0,4.6,150.0,,'1111122,1111122,1111122' 
COMPS,ioos:station:USF.COMPS:EGK:1,2013-03-05T11:00:00Z,27.6010,-82.7510,10.0,5.7,160.0,,'1111122,1111122,1111122' 
COMPS,ioos:station:USF.COMPS:EGK:1,2013-03-05T12:00:00Z,27.6010,-82.7510,10.0,4.1,160.0,,'1111122,1111122,1111122' 
COMPS,ioos:station:USF.COMPS:EGK:1,2013-03-05T13:00:00Z,27.6010,-82.7510,10.0,4.6,160.0,,'1111122,1111122,1111122' 
COMPS,ioos:station:USF.COMPS:EGK:1,2013-03-05T14:00:00Z,27.6010,-82.7510,10.0,3.6,160.0,,'1111122,1111122,1111122' 
COMPS,ioos:station:USF.COMPS:EGK:1,2013-03-05T15:00:00Z,27.6010,-82.7510,10.0,2.6,150.0,,'1111122,1111122,1111122' 
COMPS,ioos:station:USF.COMPS:EGK:1,2013-03-05T16:00:00Z,27.6010,-82.7510,10.0,2.6,160.0,,'1111122,1111122,1111122' 
COMPS,ioos:station:USF.COMPS:EGK:1,2013-03-05T18:00:00Z,27.6010,-82.7510,10.0,3.1,160.0,,'1111122,1111122,1111122' 
COMPS,ioos:station:USF.COMPS:EGK:1,2013-03-05T19:00:00Z,27.6010,-82.7510,10.0,4.1,170.0,,'1111122,1111122,1111122' 
COMPS,ioos:station:USF.COMPS:EGK:1,2013-03-05T21:00:00Z,27.6010,-82.7510,10.0,1.5,230.0,,'1111122,1111122,1111122' 
COMPS,ioos:station:USF.COMPS:EGK:1,2013-03-05T22:00:00Z,27.6010,-82.7510,10.0,2.1,200.0,,'1111122,1111122,1111122' 
COMPS,ioos:station:USF.COMPS:EGK:1,2013-03-05T23:00:00Z,27.6010,-82.7510,10.0,2.1,210.0,,'1111122,1111122,1111122' 
COMPS,ioos:station:USF.COMPS:EGK:1,2013-03-06T00:00:00Z,27.6010,-82.7510,10.0,2.6,200.0,,'1111122,1111122,1111122' 
COMPS,ioos:station:USF.COMPS:EGK:1,2013-03-06T01:00:00Z,27.6010,-82.7510,10.0,3.1,200.0,,'1111122,1111122,1111122' 
COMPS,ioos:station:USF.COMPS:EGK:1,2013-03-06T02:00:00Z,27.6010,-82.7510,10.0,4.1,200.0,,'1111122,1111122,1111122' 
COMPS,ioos:station:USF.COMPS:EGK:1,2013-03-06T03:00:00Z,27.6010,-82.7510,10.0,4.1,200.0,,'1111122,1111122,1111122' 
COMPS,ioos:station:USF.COMPS:EGK:1,2013-03-06T04:00:00Z,27.6010,-82.7510,10.0,4.1,200.0,,'1111122,1111122,1111122' 
COMPS,ioos:station:USF.COMPS:EGK:1,2013-03-06T05:00:00Z,27.6010,-82.7510,10.0,4.6,200.0,,'1111122,1111122,1111122' 
COMPS,ioos:station:USF.COMPS:EGK:1,2013-03-06T06:00:00Z,27.6010,-82.7510,10.0,3.1,210.0,,'1111122,1111122,1111122' 
COMPS,ioos:station:USF.COMPS:EGK:1,2013-03-06T07:00:00Z,27.6010,-82.7510,10.0,3.6,220.0,,'1111122,1111122,1111122' 
COMPS,ioos:station:USF.COMPS:EGK:1,2013-03-06T08:00:00Z,27.6010,-82.7510,10.0,3.6,220.0,,'1111122,1111122,1111122' 
COMPS,ioos:station:USF.COMPS:EGK:1,2013-03-06T09:00:00Z,27.6010,-82.7510,10.0,4.1,240.0,,'1111122,1111122,1111122' 
COMPS,ioos:station:USF.COMPS:EGK:1,2013-03-06T10:00:00Z,27.6010,-82.7510,10.0,4.1,260.0,,'1111122,1111122,1111122' 
COMPS,ioos:station:USF.COMPS:EGK:1,2013-03-06T11:00:00Z,27.6010,-82.7510,10.0,12.3,350.0,,'1111122,1111122,1111122' 
COMPS,ioos:station:USF.COMPS:EGK:1,2013-03-06T12:00:00Z,27.6010,-82.7510,10.0,11.8,350.0,,'1111122,1111122,1111122' 
COMPS,ioos:station:USF.COMPS:EGK:1,2013-03-06T13:00:00Z,27.6010,-82.7510,10.0,10.3,350.0,,'1111122,1111122,1111122' 
COMPS,ioos:station:USF.COMPS:EGK:1,2013-03-06T14:00:00Z,27.6010,-82.7510,10.0,9.8,360.0,,'1111122,1111122,1111122' 
COMPS,ioos:station:USF.COMPS:EGK:1,2013-03-06T15:00:00Z,27.6010,-82.7510,10.0,8.7,350.0,,'1111122,1111122,1111122' 
COMPS,ioos:station:USF.COMPS:EGK:1,2013-03-06T16:00:00Z,27.6010,-82.7510,10.0,9.8,350.0,,'1111122,1111122,1111122' 
COMPS,ioos:station:USF.COMPS:EGK:1,2013-03-06T17:00:00Z,27.6010,-82.7510,10.0,8.2,350.0,,'1111122,1111122,1111122' 
COMPS,ioos:station:USF.COMPS:EGK:1,2013-03-06T19:00:00Z,27.6010,-82.7510,10.0,9.8,320.0,,'1111122,1111122,1111122' 
COMPS,ioos:station:USF.COMPS:EGK:1,2013-03-06T20:00:00Z,27.6010,-82.7510,10.0,10.3,330.0,,'1111122,1111122,1111122' 
COMPS,ioos:station:USF.COMPS:EGK:1,2013-03-06T21:00:00Z,27.6010,-82.7510,10.0,9.3,320.0,,'1111122,1111122,1111122' 
COMPS,ioos:station:USF.COMPS:EGK:1,2013-03-06T22:00:00Z,27.6010,-82.7510,10.0,10.3,320.0,,'1111122,1111122,1111122' 
COMPS,ioos:station:USF.COMPS:EGK:1,2013-03-06T23:00:00Z,27.6010,-82.7510,10.0,9.8,330.0,,'1111122,1111122,1111122' 
COMPS,ioos:station:USF.COMPS:EGK:1,2013-03-07T00:00:00Z,27.6010,-82.7510,10.0,9.3,320.0,,'1111122,1111122,1111122' 
COMPS,ioos:station:USF.COMPS:EGK:1,2013-03-07T01:00:00Z,27.6010,-82.7510,10.0,9.8,320.0,,'1111122,1111122,1111122' 
COMPS,ioos:station:USF.COMPS:EGK:1,2013-03-07T02:00:00Z,27.6010,-82.7510,10.0,9.8,330.0,,'1111122,1111122,1111122' 
COMPS,ioos:station:USF.COMPS:EGK:1,2013-03-07T03:00:00Z,27.6010,-82.7510,10.0,9.3,340.0,,'1111122,1111122,1111122' 
COMPS,ioos:station:USF.COMPS:EGK:1,2013-03-07T04:00:00Z,27.6010,-82.7510,10.0,9.8,340.0,,'1111122,1111122,1111122' 
COMPS,ioos:station:USF.COMPS:EGK:1,2013-03-07T05:00:00Z,27.6010,-82.7510,10.0,7.2,10.0,,'1111122,1111122,1111122' 
COMPS,ioos:station:USF.COMPS:EGK:1,2013-03-07T06:00:00Z,27.6010,-82.7510,10.0,7.7,10.0,,'1111122,1111122,1111122' 
COMPS,ioos:station:USF.COMPS:EGK:1,2013-03-07T07:00:00Z,27.6010,-82.7510,10.0,7.2,20.0,,'1111122,1111122,1111122' 
COMPS,ioos:station:USF.COMPS:EGK:1,2013-03-07T08:00:00Z,27.6010,-82.7510,10.0,7.7,30.0,,'1111122,1111122,1111122' 
COMPS,ioos:station:USF.COMPS:EGK:1,2013-03-07T09:00:00Z,27.6010,-82.7510,10.0,6.7,20.0,,'1111122,1111122,1111122' 
COMPS,ioos:station:USF.COMPS:EGK:1,2013-03-07T10:00:00Z,27.6010,-82.7510,10.0,8.2,30.0,,'1111122,1111122,1111122' 
COMPS,ioos:station:USF.COMPS:EGK:1,2013-03-07T11:00:00Z,27.6010,-82.7510,10.0,8.2,30.0,,'1111122,1111122,1111122' 
COMPS,ioos:station:USF.COMPS:EGK:1,2013-03-07T12:00:00Z,27.6010,-82.7510,10.0,8.2,40.0,,'1111122,1111122,1111122' 
COMPS,ioos:station:USF.COMPS:EGK:1,2013-03-07T13:00:00Z,27.6010,-82.7510,10.0,8.7,30.0,,'1111122,1111122,1111122' 
COMPS,ioos:station:USF.COMPS:EGK:1,2013-03-07T14:00:00Z,27.6010,-82.7510,10.0,5.1,40.0,,'1111122,1111122,1111122' 
COMPS,ioos:station:USF.COMPS:EGK:1,2013-03-07T15:00:00Z,27.6010,-82.7510,10.0,3.6,40.0,,'1111122,1111122,1111122' 
COMPS,ioos:station:USF.COMPS:EGK:1,2013-03-07T16:00:00Z,27.6010,-82.7510,10.0,3.6,20.0,,'1111122,1111122,1111122' 
COMPS,ioos:station:USF.COMPS:EGK:1,2013-03-07T17:00:00Z,27.6010,-82.7510,10.0,2.1,360.0,,'1111122,1111122,1111122' 
COMPS,ioos:station:USF.COMPS:EGK:1,2013-03-07T18:00:00Z,27.6010,-82.7510,10.0,3.1,320.0,,'1111122,1111122,1111122' 
COMPS,ioos:station:USF.COMPS:EGK:1,2013-03-07T20:00:00Z,27.6010,-82.7510,10.0,7.2,330.0,,'1111122,1111122,1111122' 
COMPS,ioos:station:USF.COMPS:EGK:1,2013-03-07T21:00:00Z,27.6010,-82.7510,10.0,7.7,330.0,,'1111122,1111122,1111122' 
COMPS,ioos:station:USF.COMPS:EGK:1,2013-03-07T22:00:00Z,27.6010,-82.7510,10.0,7.2,340.0,,'1111122,1111122,1111122' 
COMPS,ioos:station:USF.COMPS:EGK:1,2013-03-07T23:00:00Z,27.6010,-82.7510,10.0,6.7,340.0,,'1111122,1111122,1111122' 
COMPS,ioos:station:USF.COMPS:EGK:1,2013-03-08T00:00:00Z,27.6010,-82.7510,10.0,6.2,340.0,,'1111122,1111122,1111122' 
COMPS,ioos:station:USF.COMPS:EGK:1,2013-03-08T01:00:00Z,27.6010,-82.7510,10.0,5.1,340.0,,'1111122,1111122,1111122' 
COMPS,ioos:station:USF.COMPS:EGK:1,2013-03-08T02:00:00Z,27.6010,-82.7510,10.0,5.7,340.0,,'1111122,1111122,1111122' 
COMPS,ioos:station:USF.COMPS:EGK:1,2013-03-08T03:00:00Z,27.6010,-82.7510,10.0,4.1,350.0,,'1111122,1111122,1111122' 
COMPS,ioos:station:USF.COMPS:EGK:1,2013-03-08T04:00:00Z,27.6010,-82.7510,10.0,3.1,360.0,,'1111122,1111122,1111122' 
COMPS,ioos:station:USF.COMPS:EGK:1,2013-03-08T05:00:00Z,27.6010,-82.7510,10.0,4.1,40.0,,'1111122,1111122,1111122' 
COMPS,ioos:station:USF.COMPS:EGK:1,2013-03-08T06:00:00Z,27.6010,-82.7510,10.0,3.6,40.0,,'1111122,1111122,1111122' 
COMPS,ioos:station:USF.COMPS:EGK:1,2013-03-08T07:00:00Z,27.6010,-82.7510,10.0,5.1,20.0,,'1111122,1111122,1111122' 
COMPS,ioos:station:USF.COMPS:EGK:1,2013-03-08T08:00:00Z,27.6010,-82.7510,10.0,3.6,40.0,,'1111122,1111122,1111122' 
COMPS,ioos:station:USF.COMPS:EGK:1,2013-03-08T10:00:00Z,27.6010,-82.7510,10.0,4.1,50.0,,'1111122,1111122,1111122' 
COMPS,ioos:station:USF.COMPS:EGK:1,2013-03-08T11:00:00Z,27.6010,-82.7510,10.0,4.6,40.0,,'1111122,1111122,1111122' 
COMPS,ioos:station:USF.COMPS:EGK:1,2013-03-08T12:00:00Z,27.6010,-82.7510,10.0,4.1,40.0,,'1111122,1111122,1111122' 
COMPS,ioos:station:USF.COMPS:EGK:1,2013-03-08T13:00:00Z,27.6010,-82.7510,10.0,4.1,40.0,,'1111122,1111122,1111122' 
COMPS,ioos:station:USF.COMPS:EGK:1,2013-03-08T14:00:00Z,27.6010,-82.7510,10.0,3.1,60.0,,'1111122,1111122,1111122' 
COMPS,ioos:station:USF.COMPS:EGK:1,2013-03-08T15:00:00Z,27.6010,-82.7510,10.0,4.1,60.0,,'1111122,1111122,1111122' 
COMPS,ioos:station:USF.COMPS:EGK:1,2013-03-08T16:00:00Z,27.6010,-82.7510,10.0,3.6,70.0,,'1111122,1111122,1111122' 
COMPS,ioos:station:USF.COMPS:EGK:1,2013-03-08T17:00:00Z,27.6010,-82.7510,10.0,2.6,70.0,,'1111122,1111122,1111122' 
COMPS,ioos:station:USF.COMPS:EGK:1,2013-03-08T18:00:00Z,27.6010,-82.7510,10.0,2.1,340.0,,'1111122,1111122,1111122' 
COMPS,ioos:station:USF.COMPS:EGK:1,2013-03-08T19:00:00Z,27.6010,-82.7510,10.0,3.6,320.0,,'1111122,1111122,1111122' 
COMPS,ioos:station:USF.COMPS:EGK:1,2013-03-08T20:00:00Z,27.6010,-82.7510,10.0,4.6,340.0,,'1111122,1111122,1111122' 
COMPS,ioos:station:USF.COMPS:EGK:1,2013-03-08T21:00:00Z,27.6010,-82.7510,10.0,4.6,330.0,,'1111122,1111122,1111122' 
COMPS,ioos:station:USF.COMPS:EGK:1,2013-03-08T23:00:00Z,27.6010,-82.7510,10.0,5.7,330.0,,'1111122,1111122,1111122' 
COMPS,ioos:station:USF.COMPS:EGK:1,2013-03-09T00:00:00Z,27.6010,-82.7510,10.0,6.2,330.0,,'1111122,1111122,1111122' 
COMPS,ioos:station:USF.COMPS:EGK:1,2013-03-09T01:00:00Z,27.6010,-82.7510,10.0,6.2,350.0,,'1111122,1111122,1111122' 
COMPS,ioos:station:USF.COMPS:EGK:1,2013-03-09T02:00:00Z,27.6010,-82.7510,10.0,4.6,350.0,,'1111122,1111122,1111122' 
COMPS,ioos:station:USF.COMPS:EGK:1,2013-03-09T03:00:00Z,27.6010,-82.7510,10.0,4.6,360.0,,'1111122,1111122,1111122' 
COMPS,ioos:station:USF.COMPS:EGK:1,2013-03-09T04:00:00Z,27.6010,-82.7510,10.0,3.6,40.0,,'1111122,1111122,1111122' 
COMPS,ioos:station:USF.COMPS:EGK:1,2013-03-09T05:00:00Z,27.6010,-82.7510,10.0,5.1,60.0,,'1111122,1111122,1111122' 
COMPS,ioos:station:USF.COMPS:EGK:1,2013-03-09T06:00:00Z,27.6010,-82.7510,10.0,4.6,70.0,,'1111122,1111122,1111122' 
COMPS,ioos:station:USF.COMPS:EGK:1,2013-03-09T07:00:00Z,27.6010,-82.7510,10.0,4.6,90.0,,'1111122,1111122,1111122' 
COMPS,ioos:station:USF.COMPS:EGK:1,2013-03-09T08:00:00Z,27.6010,-82.7510,10.0,5.1,90.0,,'1111122,1111122,1111122' 
COMPS,ioos:station:USF.COMPS:EGK:1,2013-03-09T09:00:00Z,27.6010,-82.7510,10.0,4.6,80.0,,'1111122,1111122,1111122' 
COMPS,ioos:station:USF.COMPS:EGK:1,2013-03-09T10:00:00Z,27.6010,-82.7510,10.0,5.1,90.0,,'1111122,1111122,1111122' 
COMPS,ioos:station:USF.COMPS:EGK:1,2013-03-09T11:00:00Z,27.6010,-82.7510,10.0,6.2,80.0,,'1111122,1111122,1111122' 
COMPS,ioos:station:USF.COMPS:EGK:1,2013-03-09T12:00:00Z,27.6010,-82.7510,10.0,5.7,70.0,,'1111122,1111122,1111122' 
COMPS,ioos:station:USF.COMPS:EGK:1,2013-03-09T13:00:00Z,27.6010,-82.7510,10.0,5.1,70.0,,'1111122,1111122,1111122' 
COMPS,ioos:station:USF.COMPS:EGK:1,2013-03-09T14:00:00Z,27.6010,-82.7510,10.0,5.7,80.0,,'1111122,1111122,1111122' 
COMPS,ioos:station:USF.COMPS:EGK:1,2013-03-09T16:00:00Z,27.6010,-82.7510,10.0,3.6,70.0,,'1111122,1111122,1111122' 
COMPS,ioos:station:USF.COMPS:EGK:1,2013-03-09T17:00:00Z,27.6010,-82.7510,10.0,3.1,80.0,,'1111122,1111122,1111122' 
COMPS,ioos:station:USF.COMPS:EGK:1,2013-03-09T18:00:00Z,27.6010,-82.7510,10.0,3.1,40.0,,'1111122,1111122,1111122' 
COMPS,ioos:station:USF.COMPS:EGK:1,2013-03-09T19:00:00Z,27.6010,-82.7510,10.0,2.6,40.0,,'1111122,1111122,1111122' 
COMPS,ioos:station:USF.COMPS:EGK:1,2013-03-09T20:00:00Z,27.6010,-82.7510,10.0,2.1,340.0,,'1111122,1111122,1111122' 
COMPS,ioos:station:USF.COMPS:EGK:1,2013-03-09T21:00:00Z,27.6010,-82.7510,10.0,2.6,320.0,,'1111122,1111122,1111122' 
COMPS,ioos:station:USF.COMPS:EGK:1,2013-03-09T22:00:00Z,27.6010,-82.7510,10.0,4.6,350.0,,'1111122,1111122,1111122' 
COMPS,ioos:station:USF.COMPS:EGK:1,2013-03-09T23:00:00Z,27.6010,-82.7510,10.0,4.6,360.0,,'1111122,1111122,1111122' 
COMPS,ioos:station:USF.COMPS:EGK:1,2013-03-10T00:00:00Z,27.6010,-82.7510,10.0,5.1,10.0,,'1111122,1111122,1111122' 
COMPS,ioos:station:USF.COMPS:EGK:1,2013-03-10T01:00:00Z,27.6010,-82.7510,10.0,4.1,10.0,,'1111122,1111122,1111122' 
COMPS,ioos:station:USF.COMPS:EGK:1,2013-03-10T03:00:00Z,27.6010,-82.7510,10.0,5.7,90.0,,'1111122,1111122,1111122' 
COMPS,ioos:station:USF.COMPS:EGK:1,2013-03-10T04:00:00Z,27.6010,-82.7510,10.0,5.7,100.0,,'1111122,1111122,1111122' 
COMPS,ioos:station:USF.COMPS:EGK:1,2013-03-10T05:00:00Z,27.6010,-82.7510,10.0,6.2,110.0,,'1111122,1111122,1111122' 
COMPS,ioos:station:USF.COMPS:EGK:1,2013-03-10T06:00:00Z,27.6010,-82.7510,10.0,6.2,100.0,,'1111122,1111122,1111122' 
COMPS,ioos:station:USF.COMPS:EGK:1,2013-03-10T07:00:00Z,27.6010,-82.7510,10.0,6.2,90.0,,'1111122,1111122,1111122' 
COMPS,ioos:station:USF.COMPS:EGK:1,2013-03-10T10:00:00Z,27.6010,-82.7510,10.0,5.1,100.0,,'1111122,1111122,1111122' 
COMPS,ioos:station:USF.COMPS:EGK:1,2013-03-10T11:00:00Z,27.6010,-82.7510,10.0,4.6,90.0,,'1111122,1111122,1111122' 
COMPS,ioos:station:USF.COMPS:EGK:1,2013-03-10T12:00:00Z,27.6010,-82.7510,10.0,5.1,90.0,,'1111122,1111122,1111122' 
COMPS,ioos:station:USF.COMPS:EGK:1,2013-03-10T13:00:00Z,27.6010,-82.7510,10.0,5.7,90.0,,'1111122,1111122,1111122' 
COMPS,ioos:station:USF.COMPS:EGK:1,2013-03-10T15:00:00Z,27.6010,-82.7510,10.0,3.6,100.0,,'1111122,1111122,1111122' 
COMPS,ioos:station:USF.COMPS:EGK:1,2013-03-10T16:00:00Z,27.6010,-82.7510,10.0,3.6,130.0,,'1111122,1111122,1111122' 
COMPS,ioos:station:USF.COMPS:EGK:1,2013-03-10T17:00:00Z,27.6010,-82.7510,10.0,5.7,130.0,,'1111122,1111122,1111122' 
COMPS,ioos:station:USF.COMPS:EGK:1,2013-03-10T18:00:00Z,27.6010,-82.7510,10.0,4.1,120.0,,'1111122,1111122,1111122' 
COMPS,ioos:station:USF.COMPS:EGK:1,2013-03-10T19:00:00Z,27.6010,-82.7510,10.0,3.1,250.0,,'1111122,1111122,1111122' 
COMPS,ioos:station:USF.COMPS:EGK:1,2013-03-10T20:00:00Z,27.6010,-82.7510,10.0,2.6,250.0,,'1111122,1111122,1111122' 
COMPS,ioos:station:USF.COMPS:EGK:1,2013-03-10T21:00:00Z,27.6010,-82.7510,10.0,2.6,320.0,,'1111122,1111122,1111122' 
COMPS,ioos:station:USF.COMPS:EGK:1,2013-03-10T22:00:00Z,27.6010,-82.7510,10.0,1.5,330.0,,'1111122,1111122,1111122' 
COMPS,ioos:station:USF.COMPS:EGK:1,2013-03-10T23:00:00Z,27.6010,-82.7510,10.0,1.0,330.0,,'1111122,1111122,1111122' 
COMPS,ioos:station:USF.COMPS:EGK:1,2013-03-11T01:00:00Z,27.6010,-82.7510,10.0,2.1,360.0,,'1111122,1111122,1111122' 
COMPS,ioos:station:USF.COMPS:EGK:1,2013-03-11T03:00:00Z,27.6010,-82.7510,10.0,1.0,80.0,,'1111122,1111122,1111122' 
COMPS,ioos:station:USF.COMPS:EGK:1,2013-03-11T04:00:00Z,27.6010,-82.7510,10.0,2.6,90.0,,'1111122,1111122,1111122' 
COMPS,ioos:station:USF.COMPS:EGK:1,2013-03-11T05:00:00Z,27.6010,-82.7510,10.0,3.1,140.0,,'1111122,1111122,1111122' 
COMPS,ioos:station:USF.COMPS:EGK:1,2013-03-11T06:00:00Z,27.6010,-82.7510,10.0,4.6,130.0,,'1111122,1111122,1111122' 
COMPS,ioos:station:USF.COMPS:EGK:1,2013-03-11T07:00:00Z,27.6010,-82.7510,10.0,4.1,140.0,,'1111122,1111122,1111122' 
COMPS,ioos:station:USF.COMPS:EGK:1,2013-03-11T08:00:00Z,27.6010,-82.7510,10.0,4.1,130.0,,'1111122,1111122,1111122' 
COMPS,ioos:station:USF.COMPS:EGK:1,2013-03-11T09:00:00Z,27.6010,-82.7510,10.0,5.7,130.0,,'1111122,1111122,1111122' 
COMPS,ioos:station:USF.COMPS:EGK:1,2013-03-11T10:00:00Z,27.6010,-82.7510,10.0,6.7,130.0,,'1111122,1111122,1111122' 
COMPS,ioos:station:USF.COMPS:EGK:1,2013-03-11T11:00:00Z,27.6010,-82.7510,10.0,6.2,130.0,,'1111122,1111122,1111122' 
COMPS,ioos:station:USF.COMPS:EGK:1,2013-03-11T12:00:00Z,27.6010,-82.7510,10.0,5.7,130.0,,'1111122,1111122,1111122' 
COMPS,ioos:station:USF.COMPS:EGK:1,2013-03-11T13:00:00Z,27.6010,-82.7510,10.0,5.7,130.0,,'1111122,1111122,1111122' 
COMPS,ioos:station:USF.COMPS:EGK:1,2013-03-11T15:00:00Z,27.6010,-82.7510,10.0,4.6,130.0,,'1111122,1111122,1111122' 
COMPS,ioos:station:USF.COMPS:EGK:1,2013-03-11T16:00:00Z,27.6010,-82.7510,10.0,5.1,170.0,,'1111122,1111122,1111122' 
COMPS,ioos:station:USF.COMPS:EGK:1,2013-03-11T17:00:00Z,27.6010,-82.7510,10.0,5.1,190.0,,'1111122,1111122,1111122' 
COMPS,ioos:station:USF.COMPS:EGK:1,2013-03-11T19:00:00Z,27.6010,-82.7510,10.0,5.7,180.0,,'1111122,1111122,1111122' 